Location: Arcizac
(43.0933°N, 0.0112°E)
Time: 09:26:07
(UTC+00:00)

Cosmos 2221 Rocket - Pass Details

Date: 14 December 2019
Orbit: 620 x 648 km, 82.5° (Epoch: 19 January)

Event Time Altitude Azimuth Distance (km) Brightness Sun altitude
Rises 18:06:58 0° 184° (S) 2,918 7.3 -17.8°
Reaches altitude 10° 18:09:12 10° 183° (S) 2,010 6.4 -18.2°
Maximum altitude 18:13:39 81° 96° (E) 642 3.5 -19.0°
Enters shadow 18:17:02 17° 11° (N) 1,584 5.4 -19.6°
